STARLINK-32538 (62170 NORAD) Tracking and Keplerian Element Data

This shows tracking and keplerian element data for the satellite.

Feedback or suggestion? Click here.




ElementValue
Catalog62170
NameSTARLINK-32538
Epoch Orbit583
Epoch Day34.83335648
Epoch Year2025
RAAN90.4653
Inclination69.9992
Eccentricity0.0003226
Argument of Perigee273.8485
Mean Anonmoly9.2474
Mean Motion15.1598635
Decay Rate-0.01417796
L11 62170U 24225H 25034.83335648 -.01417796 00000+0 -80255-1 0 9992
L22 62170 69.9992 90.4653 0003226 273.8485 9.2474 15.15986350 5834



Live tracking and technical data element details for STARLINK-32538 (NORAD 62170). STARLINK-32538 can be tracked NOW for your location showing map with azimuth and elevation plus other details from your city location.







IsCatalogInMostPopularTable: catalog: 62170, numindb: 20
Update: records affected: 1



GetName: 62170 STARLINK-32538

Hit Count: updated at: Mon, 19 May 2025 02:30:00 GMT